Regional Weather Roundup
Issued by NWS Mt. Holly, NJ

Home | Current Version | Previous Version | Text Only | Print | Product List | Glossary On
Versions: 1 2 3 4 5 6 7 8 9 10 11 12 13 14 15 16 17 18 19 20 21 22 23 24 25 26 27 28 29 30 31 32 33 34 35 36 37 38 39 40 41 42 43 44 45 46 47 48 49 50
027
ASUS41 KPHI 222312
RWRPHI

REGIONAL WEATHER ROUNDUP
NATIONAL WEATHER SERVICE MOUNT HOLLY NJ
700 PM EDT WED MAR 22 2017

NOTE:  "FAIR" INDICATES FEW OR NO CLOUDS BELOW 12,000 FEET WITH NO
SIGNIFICANT WEATHER AND/OR OBSTRUCTIONS TO VISIBILITY.

 * = STATION DOES NOT REPORT PRECIPITATION (E.G. RAIN, SNOW, ETC.)
        OR FOG.

NJZ015>026-230000-
SOUTHERN NEW JERSEY

CITY           SKY/WX    TMP DP  RH WIND       PRES   REMARKS
POMONA         CLEAR     35  -3  19 N25G33    30.31R WCI  23
WILDWOOD*      CLEAR     38   7  27 N17       30.33R WCI  28
MILLVILLE      CLEAR     36   2  23 N14G24    30.33R WCI  27
WRIGHTSTOWN    CLEAR     32   0  26 NW26G32   30.31R WCI  18
MOUNT HOLLY    CLEAR     33  -3  21 NW20G29   30.35R WCI  21
TRENTON        CLEAR     31  -2  24 N14G22    30.34R WCI  21

$$
NJZ001>014-230000-
NORTHERN NEW JERSEY

CITY           SKY/WX    TMP DP  RH WIND       PRES   REMARKS
SUSSEX         CLEAR     26  -3  28 NW8G20    30.34R WCI  18
ANDOVER*         N/A     25  -2  31 N15G26    30.33R WCI  13
MORRISTOWN     CLEAR     28   0  29 N13G22    30.33R WCI  18
NEWARK         CLEAR     31  -5  21 NW21G36   30.32R WCI  18
TETERBORO      CLEAR     31  -2  24 N25G36    30.30R WCI  17
CALDWELL       CLEAR     29  -2  26 NW8G17    30.33R WCI  21
SOMERVILLE     CLEAR     30  -1  26 NW17G28   30.33R WCI  18
ALLAIRE*       CLEAR    N/A N/A N/A NW16G31   30.32R
TOMS RIVER*    CLEAR     32   0  25 NW18G30   30.32R WCI  20

$$
PAZ043-044-047-054-055-060>062-066>071-230000-
EASTERN PENNSYLVANIA

CITY           SKY/WX    TMP DP  RH WIND       PRES   REMARKS
PHILADELPHIA   CLEAR     36   1  22 NW22      30.36R WCI  25
NORTH PHILA    CLEAR     34  -1  22 N20       30.37R WCI  23
BLUE BELL*     CLEAR     32   3  29 N6G17     30.35R WCI  26
QUAKERTOWN*    CLEAR     30  -2  24 NW12G22   30.35R WCI  21
PERKASIE*      FAIR      30  -4  22 N15G26    30.35R WCI  19
POTTSTOWN      CLEAR     32   0  25 N15G24    30.36R WCI  22
LANCASTER      CLEAR     35   4  27 N14       30.36R WCI  26
COATESVILLE    CLEAR     32   0  25 N15       30.35R WCI  22
READING        CLEAR     33   2  26 N20       30.36R WCI  21
ALLENTOWN      CLEAR     31  -2  24 NW14G25   30.37R WCI  21
MOUNT POCONO   CLEAR     18  -2  41 NW20G31   30.23R WCI   2
HAZLETON       CLEAR     27  -4  26 NW15G25   30.33R WCI  15
LEHIGHTON      FAIR      30  -4  22 N7        30.38R WCI  23
WILKES BARRE   MOCLDY    23   0  36 NW16G26   30.37R WCI  10

$$
DEZALL-MDZ008-012-015-019-020-230000-
DELAWARE AND EASTERN MARYLAND

CITY           SKY/WX    TMP DP  RH WIND       PRES   REMARKS
WILMINGTON     CLEAR     37   0  21 N23G30    30.37R WCI  26
DOVER          CLEAR     38  11  32 NW18      30.33R WCI  28
GEORGETOWN     CLEAR     41   8  25 N12G22    30.33R
EASTON         CLEAR     43   3  19 N10G18    30.37R
ABERDEEN       CLEAR     39   4  22 N13G24    30.37R WCI  31
PATUXENT       CLEAR     45  13  27 NW22      30.32R
OCEAN CITY     CLEAR     40  11  30 N12       30.32R WCI  33
WALLOPS ISLAND CLEAR     43   7  22 N12G21    30.30R
CAMBRIDGE      CLEAR     43   9  24 N9G17     30.33R
SALISBURY      CLEAR     42   8  24 N13       30.31R

$$
PAZ001-021-NYZ056-072-MDZ011-DCZ001-230000-
OTHER NEARBY LOCATIONS

CITY           SKY/WX    TMP DP  RH WIND       PRES   REMARKS
HARRISBURG     CLEAR     38   0  20 N10       30.36R WCI  31
STATE COLLEGE  CLEAR     32  -2  23 NW7       30.37R WCI  26
WILLIAMSPORT   PTCLDY    32  -2  23 N13G21    30.40R WCI  22
BINGHAMTON     CLEAR     16   1  51 NW13G18   30.34R WCI   2
NEW YORK CITY  CLEAR     30  -5  21 NW12G32   30.32R WCI  20
BALTIMORE      CLEAR     42   1  18 N14       30.34R
WASHINGTON DC  CLEAR     45   4  18 NW17G28   30.36R

$$




USA.gov is the U.S. government's official web portal to all federal, state and local government web resources and services.